Year,Month,Day,Hour,Minute,Value (Times are PST for windgust in km/hr)
2010,06,14,00,00,32.20
2010,06,14,00,01,25.70
2010,06,14,00,02,37.00
2010,06,14,00,03,29.00
2010,06,14,00,04,24.20
2010,06,14,00,05,37.00
2010,06,14,00,06,35.40
2010,06,14,00,07,22.50
2010,06,14,00,08,32.20
2010,06,14,00,09,27.40
2010,06,14,00,10,29.00
2010,06,14,00,11,38.60
2010,06,14,00,12,22.50
2010,06,14,00,13,22.50
2010,06,14,00,18,6.40
2010,06,14,00,19,24.20
2010,06,14,00,20,20.90
2010,06,14,00,21,16.10
2010,06,14,00,22,27.40
2010,06,14,00,23,16.10
2010,06,14,00,24,19.30
2010,06,14,00,25,16.10
2010,06,14,00,26,14.50
2010,06,14,00,27,19.30
2010,06,14,00,28,16.10
2010,06,14,00,29,19.30
2010,06,14,00,30,11.30
2010,06,14,00,31,9.60
2010,06,14,00,32,20.90
2010,06,14,00,33,22.50
2010,06,14,00,34,25.70
2010,06,14,00,35,24.20
2010,06,14,00,36,24.20
2010,06,14,00,37,17.70
2010,06,14,00,38,19.30
2010,06,14,00,39,11.30
2010,06,14,00,40,17.70
2010,06,14,00,41,12.90
2010,06,14,00,42,29.00
2010,06,14,00,43,22.50
2010,06,14,00,44,29.00
2010,06,14,00,45,16.10
2010,06,14,00,46,11.30
2010,06,14,00,47,14.50
2010,06,14,00,48,17.70
2010,06,14,00,49,16.10
2010,06,14,00,50,22.50
2010,06,14,00,51,22.50
2010,06,14,00,52,27.40
2010,06,14,00,53,25.70
2010,06,14,00,54,20.90
2010,06,14,00,55,11.30
2010,06,14,00,56,22.50
2010,06,14,00,57,20.90
2010,06,14,00,58,16.10
2010,06,14,00,59,19.30
2010,06,14,01,00,9.60
2010,06,14,01,01,19.30
2010,06,14,01,02,11.30
2010,06,14,01,03,17.70
2010,06,14,01,04,22.50
2010,06,14,01,05,30.60
2010,06,14,01,06,24.20
2010,06,14,01,07,17.70
2010,06,14,01,08,19.30
2010,06,14,01,09,14.50
2010,06,14,01,10,20.90
2010,06,14,01,11,19.30
2010,06,14,01,12,22.50
2010,06,14,01,13,16.10
2010,06,14,01,14,20.90
2010,06,14,01,15,14.50
2010,06,14,01,16,17.70
2010,06,14,01,17,17.70
2010,06,14,01,18,17.70
2010,06,14,01,19,25.70
2010,06,14,01,20,20.90
2010,06,14,01,21,25.70
2010,06,14,01,22,19.30
2010,06,14,01,23,27.40
2010,06,14,01,24,22.50
2010,06,14,01,25,16.10
2010,06,14,01,26,16.10
2010,06,14,01,27,19.30
2010,06,14,01,28,24.20
2010,06,14,01,29,30.60
2010,06,14,01,30,14.50
2010,06,14,01,31,16.10
2010,06,14,01,32,9.60
2010,06,14,01,33,14.50
2010,06,14,01,34,25.70
2010,06,14,01,35,17.70
2010,06,14,01,36,19.30
2010,06,14,01,37,29.00
2010,06,14,01,38,22.50
2010,06,14,01,39,11.30
2010,06,14,01,40,16.10
2010,06,14,01,41,20.90
2010,06,14,01,42,8.10
2010,06,14,01,43,11.30
2010,06,14,01,44,19.30
2010,06,14,01,45,20.90
2010,06,14,01,46,16.10
2010,06,14,01,47,14.50
2010,06,14,01,48,11.30
2010,06,14,01,49,20.90
2010,06,14,01,50,16.10
2010,06,14,01,51,24.20
2010,06,14,01,52,22.50
2010,06,14,01,53,20.90
2010,06,14,01,54,19.30
2010,06,14,01,55,16.10
2010,06,14,01,56,17.70
2010,06,14,01,57,11.30
2010,06,14,01,58,17.70
2010,06,14,01,59,22.50
2010,06,14,02,00,17.70
2010,06,14,02,01,24.20
2010,06,14,02,02,24.20
2010,06,14,02,03,16.10
2010,06,14,02,04,24.20
2010,06,14,02,05,19.30
2010,06,14,02,06,24.20
2010,06,14,02,07,20.90
2010,06,14,02,08,20.90
2010,06,14,02,09,17.70
2010,06,14,02,10,16.10
2010,06,14,02,11,11.30
2010,06,14,02,12,16.10
2010,06,14,02,13,14.50
2010,06,14,02,14,14.50
2010,06,14,02,15,8.10
2010,06,14,02,16,12.90
2010,06,14,02,17,11.30
2010,06,14,02,18,11.30
2010,06,14,02,19,9.60
2010,06,14,02,20,17.70
2010,06,14,02,21,16.10
2010,06,14,02,22,12.90
2010,06,14,02,23,19.30
2010,06,14,02,24,20.90
2010,06,14,02,25,16.10
2010,06,14,02,26,19.30
2010,06,14,02,27,16.10
2010,06,14,02,28,17.70
2010,06,14,02,29,25.70
2010,06,14,02,30,17.70
2010,06,14,02,31,8.10
2010,06,14,02,32,8.10
2010,06,14,02,33,14.50
2010,06,14,02,34,9.60
2010,06,14,02,35,9.60
2010,06,14,02,36,16.10
2010,06,14,02,37,11.30
2010,06,14,02,38,9.60
2010,06,14,02,39,9.60
2010,06,14,02,40,14.50
2010,06,14,02,41,8.10
2010,06,14,02,42,14.50
2010,06,14,02,43,19.30
2010,06,14,02,44,14.50
2010,06,14,02,45,16.10
2010,06,14,02,46,16.10
2010,06,14,02,47,19.30
2010,06,14,02,48,20.90
2010,06,14,02,49,8.10
2010,06,14,02,50,19.30
2010,06,14,02,51,20.90
2010,06,14,02,52,16.10
2010,06,14,02,53,16.10
2010,06,14,02,54,11.30
2010,06,14,02,55,19.30
2010,06,14,02,56,19.30
2010,06,14,02,57,16.10
2010,06,14,02,58,12.90
2010,06,14,02,59,9.60
2010,06,14,03,00,9.60
2010,06,14,03,01,11.30
2010,06,14,03,02,14.50
2010,06,14,03,03,17.70
2010,06,14,03,04,16.10
2010,06,14,03,05,17.70
2010,06,14,03,06,16.10
2010,06,14,03,07,9.60
2010,06,14,03,08,11.30
2010,06,14,03,09,12.90
2010,06,14,03,10,17.70
2010,06,14,03,11,19.30
2010,06,14,03,12,11.30
2010,06,14,03,13,14.50
2010,06,14,03,14,16.10
2010,06,14,03,15,9.60
2010,06,14,03,16,17.70
2010,06,14,03,17,14.50
2010,06,14,03,18,16.10
2010,06,14,03,19,14.50
2010,06,14,03,20,16.10
2010,06,14,03,21,8.10
2010,06,14,03,22,14.50
2010,06,14,03,23,8.10
2010,06,14,03,24,9.60
2010,06,14,03,25,9.60
2010,06,14,03,26,14.50
2010,06,14,03,27,11.30
2010,06,14,03,28,22.50
2010,06,14,03,29,22.50
2010,06,14,03,30,8.10
2010,06,14,03,31,8.10
2010,06,14,03,32,9.60
2010,06,14,03,33,11.30
2010,06,14,03,34,8.10
2010,06,14,03,35,16.10
2010,06,14,03,36,14.50
2010,06,14,03,37,16.10
2010,06,14,03,38,14.50
2010,06,14,03,39,8.10
2010,06,14,03,40,6.40
2010,06,14,03,41,16.10
2010,06,14,03,42,16.10
2010,06,14,03,43,8.10
2010,06,14,03,44,9.60
2010,06,14,03,45,12.90
2010,06,14,03,46,12.90
2010,06,14,03,47,11.30
2010,06,14,03,48,6.40
2010,06,14,03,49,8.10
2010,06,14,03,50,11.30
2010,06,14,03,51,9.60
2010,06,14,03,52,8.10
2010,06,14,03,53,11.30
2010,06,14,03,54,11.30
2010,06,14,03,55,11.30
2010,06,14,03,56,11.30
2010,06,14,03,57,11.30
2010,06,14,03,58,16.10
2010,06,14,03,59,9.60
2010,06,14,04,00,14.50
2010,06,14,04,01,16.10
2010,06,14,04,02,16.10
2010,06,14,04,03,9.60
2010,06,14,04,04,11.30
2010,06,14,04,05,9.60
2010,06,14,04,06,11.30
2010,06,14,04,07,9.60
2010,06,14,04,08,8.10
2010,06,14,04,09,8.10
2010,06,14,04,10,8.10
2010,06,14,04,11,8.10
2010,06,14,04,12,17.70
2010,06,14,04,13,16.10
2010,06,14,04,14,6.40
2010,06,14,04,15,9.60
2010,06,14,04,16,17.70
2010,06,14,04,17,16.10
2010,06,14,04,18,9.60
2010,06,14,04,19,8.10
2010,06,14,04,20,8.10
2010,06,14,04,21,8.10
2010,06,14,04,22,6.40
2010,06,14,04,23,6.40
2010,06,14,04,24,9.60
2010,06,14,04,25,6.40
2010,06,14,04,26,6.40
2010,06,14,04,27,8.10
2010,06,14,04,28,6.40
2010,06,14,04,29,11.30
2010,06,14,04,30,8.10
2010,06,14,04,31,19.30
2010,06,14,04,32,14.50
2010,06,14,04,33,8.10
2010,06,14,04,34,14.50
2010,06,14,04,35,11.30
2010,06,14,04,36,20.90
2010,06,14,04,37,16.10
2010,06,14,04,38,17.70
2010,06,14,04,39,8.10
2010,06,14,04,40,16.10
2010,06,14,04,41,6.40
2010,06,14,04,42,8.10
2010,06,14,04,43,9.60
2010,06,14,04,44,4.80
2010,06,14,04,45,4.80
2010,06,14,04,46,8.10
2010,06,14,04,47,8.10
2010,06,14,04,48,8.10
2010,06,14,04,49,4.80
2010,06,14,04,50,6.40
2010,06,14,04,51,6.40
2010,06,14,04,52,6.40
2010,06,14,04,53,6.40
2010,06,14,04,54,4.80
2010,06,14,04,55,9.60
2010,06,14,04,56,11.30
2010,06,14,04,57,9.60
2010,06,14,04,58,3.20
2010,06,14,04,59,9.60
2010,06,14,05,00,9.60
2010,06,14,05,01,8.10
2010,06,14,05,02,16.10
2010,06,14,05,03,8.10
2010,06,14,05,04,6.40
2010,06,14,05,05,6.40
2010,06,14,05,06,14.50
2010,06,14,05,07,14.50
2010,06,14,05,08,9.60
2010,06,14,05,09,11.30
2010,06,14,05,10,19.30
2010,06,14,05,11,19.30
2010,06,14,05,12,16.10
2010,06,14,05,13,8.10
2010,06,14,05,14,9.60
2010,06,14,05,15,17.70
2010,06,14,05,16,8.10
2010,06,14,05,17,14.50
2010,06,14,05,18,17.70
2010,06,14,05,19,9.60
2010,06,14,05,20,9.60
2010,06,14,05,21,16.10
2010,06,14,05,22,9.60
2010,06,14,05,23,14.50
2010,06,14,05,24,11.30
2010,06,14,05,25,9.60
2010,06,14,05,26,9.60
2010,06,14,05,27,8.10
2010,06,14,05,28,16.10
2010,06,14,05,29,11.30
2010,06,14,05,30,9.60
2010,06,14,05,31,12.90
2010,06,14,05,32,6.40
2010,06,14,05,33,9.60
2010,06,14,05,34,12.90
2010,06,14,05,35,11.30
2010,06,14,05,36,14.50
2010,06,14,05,37,4.80
2010,06,14,05,38,9.60
2010,06,14,05,39,9.60
2010,06,14,05,40,4.80
2010,06,14,05,41,4.80
2010,06,14,05,42,1.60
2010,06,14,05,43,3.20
2010,06,14,05,44,4.80
2010,06,14,05,45,1.60
2010,06,14,05,46,9.60
2010,06,14,05,47,9.60
2010,06,14,05,48,4.80
2010,06,14,05,49,9.60
2010,06,14,05,50,9.60
2010,06,14,05,51,8.10
2010,06,14,05,52,6.40
2010,06,14,05,53,9.60
2010,06,14,05,54,6.40
2010,06,14,05,55,8.10
2010,06,14,05,56,6.40
2010,06,14,05,57,6.40
2010,06,14,05,58,4.80
2010,06,14,05,59,11.30
2010,06,14,06,00,6.40
2010,06,14,06,01,6.40
2010,06,14,06,02,9.60
2010,06,14,06,03,6.40
2010,06,14,06,04,6.40
2010,06,14,06,05,9.60
2010,06,14,06,06,9.60
2010,06,14,06,07,8.10
2010,06,14,06,08,8.10
2010,06,14,06,09,9.60
2010,06,14,06,10,6.40
2010,06,14,06,11,6.40
2010,06,14,06,12,3.20
2010,06,14,06,13,4.80
2010,06,14,06,14,16.10
2010,06,14,06,15,6.40
2010,06,14,06,16,6.40
2010,06,14,06,17,6.40
2010,06,14,06,18,4.80
2010,06,14,06,19,6.40
2010,06,14,06,20,6.40
2010,06,14,06,21,6.40
2010,06,14,06,22,9.60
2010,06,14,06,23,4.80
2010,06,14,06,24,6.40
2010,06,14,06,25,6.40
2010,06,14,06,26,6.40
2010,06,14,06,27,4.80
2010,06,14,06,28,4.80
2010,06,14,06,29,8.10
2010,06,14,06,30,8.10
2010,06,14,06,31,9.60
2010,06,14,06,32,11.30
2010,06,14,06,33,6.40
2010,06,14,06,34,8.10
2010,06,14,06,35,8.10
2010,06,14,06,36,8.10
2010,06,14,06,37,6.40
2010,06,14,06,38,9.60
2010,06,14,06,39,11.30
2010,06,14,06,40,11.30
2010,06,14,06,41,4.80
2010,06,14,06,42,6.40
2010,06,14,06,43,6.40
2010,06,14,06,44,9.60
2010,06,14,06,45,9.60
2010,06,14,06,46,8.10
2010,06,14,06,47,6.40
2010,06,14,06,48,9.60
2010,06,14,06,49,19.30
2010,06,14,06,50,20.90
2010,06,14,06,51,17.70
2010,06,14,06,52,9.60
2010,06,14,06,53,11.30
2010,06,14,06,54,19.30
2010,06,14,06,55,8.10
2010,06,14,06,56,9.60
2010,06,14,06,57,9.60
2010,06,14,06,58,19.30
2010,06,14,06,59,22.50
2010,06,14,07,00,17.70
2010,06,14,07,01,16.10
2010,06,14,07,02,9.60
2010,06,14,07,03,14.50
2010,06,14,07,04,20.90
2010,06,14,07,05,16.10
2010,06,14,07,06,12.90
2010,06,14,07,07,16.10
2010,06,14,07,08,11.30
2010,06,14,07,09,11.30
2010,06,14,07,10,12.90
2010,06,14,07,11,8.10
2010,06,14,07,12,11.30
2010,06,14,07,13,14.50
2010,06,14,07,14,20.90
2010,06,14,07,15,16.10
2010,06,14,07,16,11.30
2010,06,14,07,17,9.60
2010,06,14,07,18,9.60
2010,06,14,07,19,17.70
2010,06,14,07,20,12.90
2010,06,14,07,21,16.10
2010,06,14,07,22,14.50
2010,06,14,07,23,11.30
2010,06,14,07,24,16.10
2010,06,14,07,25,16.10
2010,06,14,07,26,27.40
2010,06,14,07,27,22.50
2010,06,14,07,28,9.60
2010,06,14,07,29,17.70
2010,06,14,07,30,9.60
2010,06,14,07,31,16.10
2010,06,14,07,32,25.70
2010,06,14,07,33,14.50
2010,06,14,07,34,12.90
2010,06,14,07,35,20.90
2010,06,14,07,36,16.10
2010,06,14,07,37,16.10
2010,06,14,07,38,16.10
2010,06,14,07,39,17.70
2010,06,14,07,40,20.90
2010,06,14,07,41,9.60
2010,06,14,07,42,9.60
2010,06,14,07,43,9.60
2010,06,14,07,44,14.50
2010,06,14,07,45,9.60
2010,06,14,07,46,11.30
2010,06,14,07,47,20.90
2010,06,14,07,48,16.10
2010,06,14,07,49,16.10
2010,06,14,07,50,16.10
2010,06,14,07,51,17.70
2010,06,14,07,52,20.90
2010,06,14,07,53,8.10
2010,06,14,07,54,6.40
2010,06,14,07,55,20.90
2010,06,14,07,56,24.20
2010,06,14,07,57,12.90
2010,06,14,07,58,11.30
2010,06,14,07,59,20.90
2010,06,14,08,00,11.30
2010,06,14,08,01,11.30
2010,06,14,08,02,4.80
2010,06,14,08,03,4.80
2010,06,14,08,04,6.40
2010,06,14,08,05,11.30
2010,06,14,08,06,4.80
2010,06,14,08,07,6.40
2010,06,14,08,08,9.60
2010,06,14,08,09,6.40
2010,06,14,08,10,6.40
2010,06,14,08,11,17.70
2010,06,14,08,12,19.30
2010,06,14,08,13,16.10
2010,06,14,08,14,11.30
2010,06,14,08,15,8.10
2010,06,14,08,16,3.20
2010,06,14,08,17,14.50
2010,06,14,08,18,17.70
2010,06,14,08,19,16.10
2010,06,14,08,20,14.50
2010,06,14,08,21,11.30
2010,06,14,08,22,17.70
2010,06,14,08,23,16.10
2010,06,14,08,24,14.50
2010,06,14,08,25,11.30
2010,06,14,08,26,11.30
2010,06,14,08,27,22.50
2010,06,14,08,28,17.70
2010,06,14,08,29,19.30
2010,06,14,08,30,12.90
2010,06,14,08,31,14.50
2010,06,14,08,32,22.50
2010,06,14,08,33,20.90
2010,06,14,08,34,22.50
2010,06,14,08,35,24.20
2010,06,14,08,36,24.20
2010,06,14,08,37,22.50
2010,06,14,08,38,19.30
2010,06,14,08,39,24.20
2010,06,14,08,40,24.20
2010,06,14,08,41,25.70
2010,06,14,08,42,16.10
2010,06,14,08,43,25.70
2010,06,14,08,44,19.30
2010,06,14,08,45,16.10
2010,06,14,08,46,14.50
2010,06,14,08,47,16.10
2010,06,14,08,48,19.30
2010,06,14,08,49,17.70
2010,06,14,08,50,27.40
2010,06,14,08,51,20.90
2010,06,14,08,52,24.20
2010,06,14,08,53,24.20
2010,06,14,08,54,33.80
2010,06,14,08,55,27.40
2010,06,14,08,56,22.50
2010,06,14,08,57,19.30
2010,06,14,08,58,16.10
2010,06,14,08,59,14.50
2010,06,14,09,00,8.10
2010,06,14,09,01,12.90
2010,06,14,09,02,16.10
2010,06,14,09,03,12.90
2010,06,14,09,04,9.60
2010,06,14,09,05,20.90
2010,06,14,09,06,14.50
2010,06,14,09,07,19.30
2010,06,14,09,08,19.30
2010,06,14,09,09,25.70
2010,06,14,09,10,19.30
2010,06,14,09,11,9.60
2010,06,14,09,12,11.30
2010,06,14,09,13,22.50
2010,06,14,09,14,14.50
2010,06,14,09,15,27.40
2010,06,14,09,16,27.40
2010,06,14,09,17,25.70
2010,06,14,09,18,24.20
2010,06,14,09,19,17.70
2010,06,14,09,20,20.90
2010,06,14,09,21,16.10
2010,06,14,09,22,9.60
2010,06,14,09,23,12.90
2010,06,14,09,24,9.60
2010,06,14,09,25,17.70
2010,06,14,09,26,16.10
2010,06,14,09,27,22.50
2010,06,14,09,28,27.40
2010,06,14,09,29,20.90
2010,06,14,09,30,29.00
2010,06,14,09,31,27.40
2010,06,14,09,32,17.70
2010,06,14,09,33,17.70
2010,06,14,09,34,11.30
2010,06,14,09,35,22.50
2010,06,14,09,36,30.60
2010,06,14,09,37,25.70
2010,06,14,09,38,27.40
2010,06,14,09,39,27.40
2010,06,14,09,40,25.70
2010,06,14,09,41,29.00
2010,06,14,09,42,20.90
2010,06,14,09,43,20.90
2010,06,14,09,44,33.80
2010,06,14,09,45,30.60
2010,06,14,09,46,19.30
2010,06,14,09,47,27.40
2010,06,14,09,48,35.40
2010,06,14,09,49,25.70
2010,06,14,09,50,35.40
2010,06,14,09,51,25.70
2010,06,14,09,52,25.70
2010,06,14,09,53,35.40
2010,06,14,09,54,22.50
2010,06,14,09,55,17.70
2010,06,14,09,56,24.20
2010,06,14,09,57,17.70
2010,06,14,09,58,16.10
2010,06,14,09,59,29.00
2010,06,14,10,00,35.40
2010,06,14,10,01,33.80
2010,06,14,10,02,24.20
2010,06,14,10,03,29.00
2010,06,14,10,04,35.40
2010,06,14,10,05,33.80
2010,06,14,10,06,33.80
2010,06,14,10,07,27.40
2010,06,14,10,08,22.50
2010,06,14,10,09,22.50
2010,06,14,10,10,20.90
2010,06,14,10,11,33.80
2010,06,14,10,12,33.80
2010,06,14,10,13,25.70
2010,06,14,10,14,27.40
2010,06,14,10,15,29.00
2010,06,14,10,16,35.40
2010,06,14,10,17,45.10
2010,06,14,10,18,33.80
2010,06,14,10,19,22.50
2010,06,14,10,20,22.50
2010,06,14,10,21,17.70
2010,06,14,10,22,33.80
2010,06,14,10,23,27.40
2010,06,14,10,24,27.40
2010,06,14,10,25,25.70
2010,06,14,10,26,24.20
2010,06,14,10,27,32.20
2010,06,14,10,28,20.90
2010,06,14,10,29,30.60
2010,06,14,10,30,32.20
2010,06,14,10,31,20.90
2010,06,14,10,32,25.70
2010,06,14,10,33,29.00
2010,06,14,10,34,30.60
2010,06,14,10,35,43.50
2010,06,14,10,36,41.80
2010,06,14,10,37,37.00
2010,06,14,10,38,32.20
2010,06,14,10,39,32.20
2010,06,14,10,40,24.20
2010,06,14,10,41,40.20
2010,06,14,10,42,30.60
2010,06,14,10,43,30.60
2010,06,14,10,44,30.60
2010,06,14,10,45,25.70
2010,06,14,10,46,22.50
2010,06,14,10,47,20.90
2010,06,14,10,48,37.00
2010,06,14,10,49,27.40
2010,06,14,10,50,27.40
2010,06,14,10,51,24.20
2010,06,14,10,52,30.60
2010,06,14,10,53,20.90
2010,06,14,10,54,33.80
2010,06,14,10,55,32.20
2010,06,14,10,56,35.40
2010,06,14,10,57,20.90
2010,06,14,10,58,38.60
2010,06,14,10,59,32.20
2010,06,14,11,00,30.60
2010,06,14,11,01,25.70
2010,06,14,11,02,32.20
2010,06,14,11,03,38.60
2010,06,14,11,04,22.50
2010,06,14,11,05,20.90
2010,06,14,11,06,11.30
2010,06,14,11,07,25.70
2010,06,14,11,08,35.40
2010,06,14,11,09,43.50
2010,06,14,11,10,30.60
2010,06,14,11,11,43.50
2010,06,14,11,12,33.80
2010,06,14,11,13,30.60
2010,06,14,11,14,30.60
2010,06,14,11,15,33.80
2010,06,14,11,16,37.00
2010,06,14,11,17,37.00
2010,06,14,11,18,29.00
2010,06,14,11,19,32.20
2010,06,14,11,20,33.80
2010,06,14,11,21,38.60
2010,06,14,11,22,35.40
2010,06,14,11,23,29.00
2010,06,14,11,24,30.60
2010,06,14,11,25,37.00
2010,06,14,11,26,32.20
2010,06,14,11,27,40.20
2010,06,14,11,28,33.80
2010,06,14,11,29,35.40
2010,06,14,11,30,35.40
2010,06,14,11,31,32.20
2010,06,14,11,32,27.40
2010,06,14,11,33,41.80
2010,06,14,11,34,43.50
2010,06,14,11,35,40.20
2010,06,14,11,36,29.00
2010,06,14,11,37,16.10
2010,06,14,11,38,43.50
2010,06,14,11,39,24.20
2010,06,14,11,40,22.50
2010,06,14,11,41,29.00
2010,06,14,11,42,27.40
2010,06,14,11,43,27.40
2010,06,14,11,44,25.70
2010,06,14,11,45,30.60
2010,06,14,11,46,30.60
2010,06,14,11,47,41.80
2010,06,14,11,48,32.20
2010,06,14,11,49,37.00
2010,06,14,11,50,33.80
2010,06,14,11,51,35.40
2010,06,14,11,52,37.00
2010,06,14,11,53,32.20
2010,06,14,11,54,30.60
2010,06,14,11,55,22.50
2010,06,14,11,56,40.20
2010,06,14,11,57,32.20
2010,06,14,11,58,25.70
2010,06,14,11,59,46.70
2010,06,14,12,00,41.80
2010,06,14,12,01,40.20
2010,06,14,12,02,29.00
2010,06,14,12,03,19.30
2010,06,14,12,04,24.20
2010,06,14,12,05,25.70
2010,06,14,12,06,37.00
2010,06,14,12,07,48.30
2010,06,14,12,08,38.60
2010,06,14,12,09,20.90
2010,06,14,12,10,25.70
2010,06,14,12,11,29.00
2010,06,14,12,12,43.50
2010,06,14,12,13,30.60
2010,06,14,12,14,32.20
2010,06,14,12,15,30.60
2010,06,14,12,16,30.60
2010,06,14,12,17,32.20
2010,06,14,12,18,20.90
2010,06,14,12,19,19.30
2010,06,14,12,20,33.80
2010,06,14,12,21,38.60
2010,06,14,12,22,24.20
2010,06,14,12,23,22.50
2010,06,14,12,24,35.40
2010,06,14,12,25,35.40
2010,06,14,12,26,37.00
2010,06,14,12,27,27.40
2010,06,14,12,28,37.00
2010,06,14,12,29,32.20
2010,06,14,12,30,30.60
2010,06,14,12,31,49.90
2010,06,14,12,32,29.00
2010,06,14,12,33,45.10
2010,06,14,12,34,40.20
2010,06,14,12,35,24.20
2010,06,14,12,36,27.40
2010,06,14,12,37,29.00
2010,06,14,12,38,20.90
2010,06,14,12,39,33.80
2010,06,14,12,40,27.40
2010,06,14,12,41,38.60
2010,06,14,12,42,35.40
2010,06,14,12,43,25.70
2010,06,14,12,44,22.50
2010,06,14,12,45,32.20
2010,06,14,12,46,27.40
2010,06,14,12,47,19.30
2010,06,14,12,48,38.60
2010,06,14,12,49,32.20
2010,06,14,12,50,27.40
2010,06,14,12,51,27.40
2010,06,14,12,52,22.50
2010,06,14,12,53,32.20
2010,06,14,12,54,25.70
2010,06,14,12,55,45.10
2010,06,14,12,56,27.40
2010,06,14,12,57,40.20
2010,06,14,12,58,33.80
2010,06,14,12,59,33.80
2010,06,14,13,00,43.50
2010,06,14,13,01,32.20
2010,06,14,13,02,33.80
2010,06,14,13,03,16.10
2010,06,14,13,04,30.60
2010,06,14,13,05,17.70
2010,06,14,13,06,32.20
2010,06,14,13,07,35.40
2010,06,14,13,08,24.20
2010,06,14,13,09,40.20
2010,06,14,13,10,43.50
2010,06,14,13,11,25.70
2010,06,14,13,12,30.60
2010,06,14,13,13,35.40
2010,06,14,13,14,27.40
2010,06,14,13,15,49.90
2010,06,14,13,16,45.10
2010,06,14,13,17,43.50
2010,06,14,13,18,37.00
2010,06,14,13,19,38.60
2010,06,14,13,20,46.70
2010,06,14,13,21,40.20
2010,06,14,13,22,46.70
2010,06,14,13,23,40.20
2010,06,14,13,24,37.00
2010,06,14,13,25,41.80
2010,06,14,13,26,35.40
2010,06,14,13,27,37.00
2010,06,14,13,28,49.90
2010,06,14,13,29,41.80
2010,06,14,13,30,32.20
2010,06,14,13,31,33.80
2010,06,14,13,32,43.50
2010,06,14,13,33,46.70
2010,06,14,13,34,45.10
2010,06,14,13,35,41.80
2010,06,14,13,36,38.60
2010,06,14,13,37,37.00
2010,06,14,13,38,46.70
2010,06,14,13,39,45.10
2010,06,14,13,40,37.00
2010,06,14,13,41,37.00
2010,06,14,13,42,37.00
2010,06,14,13,43,43.50
2010,06,14,13,44,43.50
2010,06,14,13,45,35.40
2010,06,14,13,46,40.20
2010,06,14,13,47,37.00
2010,06,14,13,48,49.90
2010,06,14,13,49,48.30
2010,06,14,13,50,35.40
2010,06,14,13,51,30.60
2010,06,14,13,52,27.40
2010,06,14,13,53,32.20
2010,06,14,13,54,24.20
2010,06,14,13,55,43.50
2010,06,14,13,56,41.80
2010,06,14,13,57,51.50
2010,06,14,13,58,43.50
2010,06,14,13,59,41.80
2010,06,14,14,00,32.20
2010,06,14,14,01,49.90
2010,06,14,14,02,40.20
2010,06,14,14,03,48.30
2010,06,14,14,04,40.20
2010,06,14,14,05,38.60
2010,06,14,14,06,40.20
2010,06,14,14,07,48.30
2010,06,14,14,08,35.40
2010,06,14,14,09,29.00
2010,06,14,14,10,25.70
2010,06,14,14,11,27.40
2010,06,14,14,12,33.80
2010,06,14,14,13,30.60
2010,06,14,14,14,22.50
2010,06,14,14,15,33.80
2010,06,14,14,16,38.60
2010,06,14,14,17,32.20
2010,06,14,14,18,33.80
2010,06,14,14,19,37.00
2010,06,14,14,20,37.00
2010,06,14,14,21,32.20
2010,06,14,14,22,29.00
2010,06,14,14,23,37.00
2010,06,14,14,24,24.20
2010,06,14,14,25,29.00
2010,06,14,14,26,24.20
2010,06,14,14,27,35.40
2010,06,14,14,28,35.40
2010,06,14,14,29,46.70
2010,06,14,14,30,45.10
2010,06,14,14,31,29.00
2010,06,14,14,32,41.80
2010,06,14,14,33,45.10
2010,06,14,14,34,40.20
2010,06,14,14,35,29.00
2010,06,14,14,36,24.20
2010,06,14,14,37,43.50
2010,06,14,14,38,41.80
2010,06,14,14,39,43.50
2010,06,14,14,40,48.30
2010,06,14,14,41,41.80
2010,06,14,14,42,32.20
2010,06,14,14,43,46.70
2010,06,14,14,44,37.00
2010,06,14,14,45,41.80
2010,06,14,14,46,41.80
2010,06,14,14,47,30.60
2010,06,14,14,48,45.10
2010,06,14,14,49,43.50
2010,06,14,14,50,38.60
2010,06,14,14,51,35.40
2010,06,14,14,52,48.30
2010,06,14,14,53,38.60
2010,06,14,14,54,35.40
2010,06,14,14,55,40.20
2010,06,14,14,56,48.30
2010,06,14,14,57,32.20
2010,06,14,14,58,37.00
2010,06,14,14,59,37.00
2010,06,14,15,00,41.80
2010,06,14,15,01,37.00
2010,06,14,15,02,49.90
2010,06,14,15,03,48.30
2010,06,14,15,04,33.80
2010,06,14,15,05,37.00
2010,06,14,15,06,30.60
2010,06,14,15,07,22.50
2010,06,14,15,08,32.20
2010,06,14,15,09,40.20
2010,06,14,15,10,35.40
2010,06,14,15,11,24.20
2010,06,14,15,12,38.60
2010,06,14,15,13,30.60
2010,06,14,15,14,48.30
2010,06,14,15,15,35.40
2010,06,14,15,16,30.60
2010,06,14,15,17,38.60
2010,06,14,15,18,38.60
2010,06,14,15,19,40.20
2010,06,14,15,20,38.60
2010,06,14,15,21,33.80
2010,06,14,15,22,32.20
2010,06,14,15,23,37.00
2010,06,14,15,24,30.60
2010,06,14,15,25,53.10
2010,06,14,15,26,41.80
2010,06,14,15,27,25.70
2010,06,14,15,28,30.60
2010,06,14,15,29,32.20
2010,06,14,15,30,32.20
2010,06,14,15,31,49.90
2010,06,14,15,32,33.80
2010,06,14,15,33,24.20
2010,06,14,15,34,32.20
2010,06,14,15,35,25.70
2010,06,14,15,36,45.10
2010,06,14,15,37,33.80
2010,06,14,15,38,46.70
2010,06,14,15,39,37.00
2010,06,14,15,40,40.20
2010,06,14,15,41,45.10
2010,06,14,15,42,33.80
2010,06,14,15,43,38.60
2010,06,14,15,44,45.10
2010,06,14,15,45,45.10
2010,06,14,15,46,37.00
2010,06,14,15,47,61.20
2010,06,14,15,48,41.80
2010,06,14,15,49,37.00
2010,06,14,15,50,51.50
2010,06,14,15,51,41.80
2010,06,14,15,52,33.80
2010,06,14,15,53,37.00
2010,06,14,15,54,53.10
2010,06,14,15,55,38.60
2010,06,14,15,56,33.80
2010,06,14,15,57,43.50
2010,06,14,15,58,37.00
2010,06,14,15,59,56.30
2010,06,14,16,00,33.80
2010,06,14,16,01,40.20
2010,06,14,16,02,38.60
2010,06,14,16,03,51.50
2010,06,14,16,04,33.80
2010,06,14,16,05,37.00
2010,06,14,16,06,45.10
2010,06,14,16,07,38.60
2010,06,14,16,08,33.80
2010,06,14,16,09,38.60
2010,06,14,16,10,43.50
2010,06,14,16,11,41.80
2010,06,14,16,12,43.50
2010,06,14,16,13,43.50
2010,06,14,16,14,38.60
2010,06,14,16,15,30.60
2010,06,14,16,16,45.10
2010,06,14,16,17,53.10
2010,06,14,16,18,46.70
2010,06,14,16,19,32.20
2010,06,14,16,20,61.20
2010,06,14,16,21,41.80
2010,06,14,16,22,40.20
2010,06,14,16,23,33.80
2010,06,14,16,24,30.60
2010,06,14,16,25,46.70
2010,06,14,16,26,48.30
2010,06,14,16,27,45.10
2010,06,14,16,28,51.50
2010,06,14,16,29,41.80
2010,06,14,16,30,32.20
2010,06,14,16,31,32.20
2010,06,14,16,32,51.50
2010,06,14,16,33,45.10
2010,06,14,16,34,49.90
2010,06,14,16,35,32.20
2010,06,14,16,36,46.70
2010,06,14,16,37,41.80
2010,06,14,16,38,51.50
2010,06,14,16,39,33.80
2010,06,14,16,40,49.90
2010,06,14,16,41,45.10
2010,06,14,16,42,49.90
2010,06,14,16,43,46.70
2010,06,14,16,44,35.40
2010,06,14,16,45,43.50
2010,06,14,16,46,49.90
2010,06,14,16,47,45.10
2010,06,14,16,48,41.80
2010,06,14,16,49,49.90
2010,06,14,16,50,41.80
2010,06,14,16,51,38.60
2010,06,14,16,52,33.80
2010,06,14,16,53,49.90
2010,06,14,16,54,45.10
2010,06,14,16,55,45.10
2010,06,14,16,56,49.90
2010,06,14,16,57,46.70
2010,06,14,16,58,48.30
2010,06,14,16,59,35.40
2010,06,14,17,00,46.70
2010,06,14,17,01,48.30
2010,06,14,17,02,46.70
2010,06,14,17,03,46.70
2010,06,14,17,04,51.50
2010,06,14,17,05,51.50
2010,06,14,17,06,53.10
2010,06,14,17,07,35.40
2010,06,14,17,08,48.30
2010,06,14,17,09,53.10
2010,06,14,17,10,57.90
2010,06,14,17,11,53.10
2010,06,14,17,12,49.90
2010,06,14,17,13,45.10
2010,06,14,17,14,38.60
2010,06,14,17,15,51.50
2010,06,14,17,16,51.50
2010,06,14,17,17,45.10
2010,06,14,17,18,40.20
2010,06,14,17,19,48.30
2010,06,14,17,20,41.80
2010,06,14,17,21,38.60
2010,06,14,17,22,41.80
2010,06,14,17,23,37.00
2010,06,14,17,24,45.10
2010,06,14,17,25,32.20
2010,06,14,17,26,49.90
2010,06,14,17,27,53.10
2010,06,14,17,28,48.30
2010,06,14,17,29,53.10
2010,06,14,17,30,53.10
2010,06,14,17,31,35.40